Tracking 18980 objects as of 19-Feb-2018
HD Live streaming from Space Station
objects crossing your sky now

FENGYUN 1C DEB

Track FENGYUN 1C DEB now!
10-day predictions


NORAD ID: 32184
Int'l Code: 1999-025CUE
Perigee: 496.6 km
Apogee: 870.3 km
Inclination: 98.3 °
Period: 98.3 minutes
Semi major axis: 7054 km
RCS: 0.0104 m2 (small)
Launch date: May 10, 1999
Source: People's Republic of China (PRC)
Launch site: Taiyaun Space Center, China (TSC)

Note: This is SATELLITE DEBRIS
aabbcc
Your satellite tracking list
Your tracking list is empty




NASA's NSSDC Master Catalog

Two Line Element Set (TLE):
1 32184U 99025CUE 18049.42359440 +.00000953 +00000-0 +11275-3 0  9992
2 32184 098.2649 114.9961 0264876 175.6049 184.7573 14.65240913562377
Source of the keplerian elements: AFSPC